SLM481 SMJP-TNCC

Flight info

Callsign SLM481
Flight time N/A
Altitude 38000
Route GEBON UG443 CBC UP671 MIQ UA315 ATONO/N0372F240 A315 AVELO AVELO1B
Aircraft A320/M-SDE3FGHIRWY/LB1

Departure

Time 2026-04-20 17:42
Airport Johan Adolf Pengel International Airport (SMJP)

Arrival

Time N/A
Airport Hato International Airport (TNCC)
Time Latitude Longitude Altitude Speed Heading
2026-04-20 16:53 5.45528 -55.19870 61 ft 0 kts 59°
2026-04-20 17:38 5.45527 -55.19854 61 ft 6 kts 121°
2026-04-20 17:38 5.45480 -55.19871 56 ft 7 kts 216°
2026-04-20 17:38 5.45458 -55.19897 55 ft 6 kts 238°
2026-04-20 17:38 5.45445 -55.19957 60 ft 7 kts 270°
2026-04-20 17:39 5.45446 -55.19998 60 ft 8 kts 271°
2026-04-20 17:39 5.45445 -55.20111 61 ft 17 kts 270°
2026-04-20 17:39 5.45446 -55.20211 61 ft 12 kts 270°
2026-04-20 17:39 5.45446 -55.20273 60 ft 7 kts 266°
2026-04-20 17:40 5.45415 -55.20348 58 ft 15 kts 205°
2026-04-20 17:40 5.45327 -55.20355 53 ft 10 kts 174°
2026-04-20 17:40 5.45272 -55.20315 52 ft 19 kts 113°
2026-04-20 17:40 5.45283 -55.20232 53 ft 0 kts 95°
2026-04-20 17:41 5.45282 -55.20214 50 ft 13 kts 95°
2026-04-20 17:41 5.45282 -55.19913 64 ft 78 kts 89°
2026-04-20 17:42 5.45294 -55.19152 62 ft 138 kts 89°
2026-04-20 17:42 5.45327 -55.18066 355 ft 158 kts 79°
2026-04-20 17:42 5.45818 -55.17110 1028 ft 158 kts 38°
2026-04-20 17:42 5.46886 -55.16759 1510 ft 172 kts 357°
2026-04-20 17:43 5.48095 -55.16963 1963 ft 191 kts 335°
2026-04-20 17:43 5.49102 -55.17973 2022 ft 223 kts 295°
2026-04-20 17:43 5.49678 -55.19519 2393 ft 245 kts 288°
2026-04-20 17:43 5.50200 -55.21193 3024 ft 261 kts 287°
2026-04-20 17:44 5.50734 -55.22976 3763 ft 271 kts 287°
2026-04-20 17:44 5.51274 -55.24769 4635 ft 275 kts 287°
2026-04-20 17:44 5.51849 -55.26648 5509 ft 279 kts 287°
2026-04-20 17:44 5.52432 -55.28524 6364 ft 283 kts 287°
2026-04-20 17:45 5.53028 -55.30417 7151 ft 287 kts 288°
2026-04-20 17:45 5.53638 -55.32336 7922 ft 291 kts 288°
2026-04-20 17:45 5.54258 -55.34282 8709 ft 295 kts 288°
2026-04-20 17:45 5.54887 -55.36250 9489 ft 298 kts 288°
2026-04-20 17:46 5.55527 -55.38251 10149 ft 307 kts 287°
2026-04-20 17:46 5.56192 -55.40342 10366 ft 330 kts 287°
2026-04-20 17:46 5.56903 -55.42584 10806 ft 342 kts 287°
2026-04-20 17:46 5.57631 -55.44872 11446 ft 347 kts 287°
2026-04-20 17:47 5.58370 -55.47188 12140 ft 350 kts 287°
2026-04-20 17:47 5.59114 -55.49524 12832 ft 353 kts 287°
2026-04-20 17:47 5.59866 -55.51884 13523 ft 356 kts 287°